Regional Weather Roundup
Issued by NWS

Home | Current Version | Previous Version | Graphics & Text | Print | Product List | Glossary On
Versions: 1 2 3 4 5 6 7 8 9 10 11 12 13 14 15 16 17 18 19 20 21 22 23 24 25 26 27 28 29 30 31 32 33 34 35 36 37 38 39 40 41 42 43 44 45 46 47 48 49 50
000
ASUS43 KDTX 280110
RWRMI
MICHIGAN HOURLY REGIONAL WEATHER ROUNDUP
NATIONAL WEATHER SERVICE DETROIT/PONTIAC MI
ISSUED BY NATIONAL WEATHER SERVICE GRAND RAPIDS MI
800 PM EST MON FEB 27 2017

NOTE: "FAIR" INDICATES FEW OR NO CLOUDS BELOW 12,000 FEET WITH NO
SIGNIFICANT WEATHER AND/OR OBSTRUCTION TO VISIBILITY.

MIZ047>049-052>055-059>063-066>070-074>076-081>083-280200-
SOUTHEAST LOWER MICHIGAN

CITY           SKY/WX    TMP DP  RH WIND       PRES   REMARKS
ADRIAN         PTCLDY    40  34  79 CALM      30.19R
ALMA           PTCLDY    35  30  83 CALM      30.14S
ANN ARBOR      CLOUDY    44  35  70 CALM      30.18R
BAD AXE        CLEAR     32  27  80 SE3       30.19R
DETROIT CITY   PTCLDY    44  34  67 S6        30.20S
DETROIT        MOCLDY    45  33  63 S8        30.20S
FLINT          PTCLDY    43  31  62 S9        30.17R
GROSSE ILE     MOCLDY    41  35  80 S8        30.20R
HILLSDALE      PTCLDY    41  32  70 SE5       30.16S
HOWELL         CLEAR     42  32  68 S8        30.16S

CITY           SKY/WX    TMP DP  RH WIND       PRES   REMARKS
JACKSON        MOCLDY    42  32  67 S6        30.16S
LANSING        PTCLDY    43  29  57 S8        30.16R
MASON          CLEAR     40  34  78 CALM      30.16R
MONROE         CLEAR     43  37  79 SE8       30.19R
MT. CLEMENS    PTCLDY    37  34  89 S8        30.18S WCI  31
PONTIAC        PTCLDY    43  32  65 S5        30.16S
PORT HOPE        N/A     34  29  82 S8        30.18S WCI  27
PORT HURON     CLEAR     39  32  75 S5        30.20S
TRI CITIES     CLEAR     41  31  67 SE5       30.15S
YPSILANTI      CLOUDY    46  36  68 S5        30.19R
$$
MIZ043>046-050>051-056>058-064>065-071>073-077>080-280200-
SOUTHWEST LOWER MICHIGAN

CITY           SKY/WX    TMP DP  RH WIND       PRES   REMARKS
BATTLE CREEK   CLOUDY    43  33  68 S7        30.14S
BENTON HARBOR  PTCLDY    45  32  60 SE7       30.11F
BIG RAPIDS     CLEAR     35  27  73 CALM      30.11S
COLDWATER      CLEAR     41  32  70 CALM      30.16R
HOLLAND        CLEAR     40  31  70 SE6       30.11F
GRAND RAPIDS   MOCLDY    41  28  60 S8        30.11F
KALAMAZOO      PTCLDY    45  31  58 S5        30.14S
MARSHALL       MOCLDY    41  32  70 SE3       30.15R
MOUNT PLEASANT CLEAR     36  28  74 CALM      30.13S
MUSKEGON       CLOUDY    39  31  72 SE5       30.10F
STURGIS        CLEAR     41  34  75 SE7       30.14S
$$
MIZ016>042-280200-
NORTHERN LOWER MICHIGAN

CITY           SKY/WX    TMP DP  RH WIND       PRES   REMARKS
ALPENA         CLEAR     30  25  81 S7        30.16R WCI  23
BEAVER ISLAND  CLEAR     28  24  86 S3        30.10S
BELLAIRE       CLOUDY    33  27  77 CALM      30.12S
CADILLAC       CLEAR     34  25  68 CALM      30.09S
CHARLEVOIX     PTCLDY    29  24  81 CALM      30.13F
GAYLORD        CLOUDY    39  23  52 SW9       30.09S WCI  33
HOUGHTON LAKE  CLOUDY    33  23  66 SE3       30.12S
MANISTEE       CLOUDY    33  26  75 E5        30.09F WCI  29
OSCODA         MOCLDY    34  31  87 S7        30.16F WCI  28
PELLSTON       CLEAR     26  18  71 CALM      30.12S
TRAVERSE CITY  PTCLDY    37  26  64 CALM      30.09F
LUDINGTON      CLOUDY    35  30  81 CALM      30.09S
$$
MIZ007>008-015-280200-
EASTERN UPPER MICHIGAN

CITY           SKY/WX    TMP DP  RH WIND       PRES   REMARKS
KINROSS        PTCLDY    27  21  78 SE12      30.12S WCI  17
MACKINAC ISLAN CLEAR     30  26  85 SE8       30.11S WCI  23
NEWBERRY       PTCLDY    28  21  74 S7        30.07S WCI  21
S. S. MARIE    MOCLDY    29  18  63 E6        30.12S WCI  23
$$
MIZ004>006-011>014-085-280200-
CENTRAL UPPER MICHIGAN

CITY           SKY/WX    TMP DP  RH WIND       PRES   REMARKS
MANISTIQUE     MOCLDY    32  31  97 SE5       30.08R WCI  27
ESCANABA       PTCLDY    32  28  85 S5        30.06S WCI  27
MENOMINEE      CLOUDY    34  28  79 S5        30.06S WCI  30
SAWYER-GWINN   CLEAR     30  23  74 S9        30.01R WCI  22
$$
MIZ001>003-009>011-084-280200-
WESTERN UPPER MICHIGAN

CITY           SKY/WX    TMP DP  RH WIND       PRES   REMARKS
IRON MOUNTAIN  CLOUDY    34  19  54 S8        30.00R WCI  27
HOUGHTON       CLEAR     20  17  88 E3        29.95R
COPPER HARBOR    N/A     27  22  81 CALM      29.97S
IRONWOOD       CLOUDY    37  17  44 S8        29.93R WCI  31
$$

ABBREVIATIONS USED IN REMARKS
   TC - TEMPERATURE IN CELSIUS
  WCI - WIND CHILL INDEX
   HX - HEAT INDEX
  VSB - VISIBILITY




USA.gov is the U.S. government's official web portal to all federal, state and local government web resources and services.